Weather History for Mount Airy, NC

Change the Weather History Date:

Wednesday, August 28, 2013

  Actual Average (KINT) Record (KINT)
Temperature  
Mean Temperature 78 °F -  
Max Temperature 87 °F 82 °F 97 °F (1987)
Min Temperature 69 °F 65 °F 44 °F (1968)
Cooling Degree Days 13    
Growing Degree Days 28 (Base 50)    
Moisture  
Dew Point 71 °F    
Average Humidity 81    
Maximum Humidity 91    
Minimum Humidity 67    
Precipitation  
Precipitation 0.00 in - - ()
Sea Level Pressure  
Sea Level Pressure 29.99 in    
Wind  
Wind Speed 1 mph (WSW)    
Max Wind Speed 8 mph    
Max Gust Speed -    
Visibility 6 miles    
Events      
Averages and records for this station are not official NWS values.
T = Trace of Precipitation, MM = Missing Value Source: NWS Daily Summary

Daily Weather History Graph

Daily Weather History Graph

Search for Another Location

Airport:

Trip Planner

Search our weather history database for the weather conditions in past years. The results will help you decide how hot, cold, wet, or windy it might be!

Date:

Astronomy

Aug. 28, 2013 Rise Set
Actual Time 6:50 AM EDT 7:55 PM EDT
Civil Twilight 6:23 AM EDT 8:22 PM EDT
Nautical Twilight 5:52 AM EDT 8:53 PM EDT
Astronomical Twilight 5:19 AM EDT 9:26 PM EDT
Moon 12:01 AM EDT (8/28) 2:27 PM EDT (8/28)
Length of Visible Light 13h 58m
Length of Day
13h 04m
Waning Gibbous, 47% of the Moon is Illuminated
Aug 28
Waning Gibbous
Sep 5
New
Sep 12
First Quarter
Sep 19
Full
Sep 26
Last Quarter

Hourly Weather History & Observations

Time (EDT) Temp. Heat Index Dew Point Humidity Pressure Visibility Wind Dir Wind Speed Gust Speed Precip Events Conditions
12:15 AM 75.9 °F - 69.8 °F 81% 30.04 in 7.0 mi Calm Calm - N/A   Clear
12:35 AM 73.6 °F - 69.6 °F 87% 30.04 in 5.0 mi Calm Calm - N/A   Clear
12:55 AM 73.4 °F - 69.3 °F 87% 30.04 in 5.0 mi Calm Calm - N/A   Clear
1:15 AM 72.9 °F - 68.9 °F 87% 30.04 in 5.0 mi Calm Calm - N/A   Clear
1:35 AM 72.3 °F - 68.7 °F 88% 30.04 in 5.0 mi Calm Calm - N/A   Clear
1:55 AM 72.5 °F - 68.9 °F 88% 30.02 in 5.0 mi Calm Calm - N/A   Clear
2:15 AM 73.0 °F - 68.4 °F 85% 30.02 in 7.0 mi Calm Calm - N/A   Clear
2:35 AM 73.6 °F - 68.4 °F 84% 30.02 in 7.0 mi Calm Calm - N/A   Clear
2:55 AM 73.6 °F - 68.2 °F 83% 30.01 in 7.0 mi Calm Calm - N/A   Clear
3:15 AM 72.5 °F - 68.0 °F 86% 30.00 in 7.0 mi Calm Calm - N/A   Clear
3:35 AM 72.5 °F - 68.0 °F 86% 30.00 in 7.0 mi Calm Calm - N/A   Clear
3:55 AM 71.8 °F - 67.3 °F 86% 30.00 in 7.0 mi Calm Calm - N/A   Clear
4:35 AM 70.5 °F - 66.7 °F 88% 30.00 in 5.0 mi Calm Calm - N/A   Clear
4:55 AM 69.6 °F - 66.4 °F 89% 30.00 in 5.0 mi Calm Calm - N/A   Clear
5:15 AM 69.8 °F - 65.8 °F 87% 30.00 in 5.0 mi Calm Calm - N/A   Clear
5:35 AM 69.1 °F - 66.0 °F 90% 30.00 in 5.0 mi Calm Calm - N/A   Clear
5:55 AM 69.1 °F - 66.2 °F 91% 30.00 in 5.0 mi Calm Calm - N/A   Clear
6:15 AM 69.8 °F - 66.7 °F 90% 30.01 in 5.0 mi Calm Calm - N/A   Clear
6:35 AM 69.8 °F - 66.6 °F 89% 30.01 in 5.0 mi Calm Calm - N/A   Clear
6:55 AM 70.2 °F - 67.1 °F 90% 30.02 in 5.0 mi Calm Calm - N/A   Clear
7:15 AM 70.3 °F - 67.1 °F 89% 30.03 in 5.0 mi Calm Calm - N/A   Clear
7:35 AM 70.7 °F - 67.3 °F 89% 30.02 in 5.0 mi Calm Calm - N/A   Clear
7:55 AM 71.1 °F - 67.8 °F 89% 30.02 in 4.0 mi Calm Calm - N/A   Clear
8:35 AM 72.7 °F - 68.7 °F 87% 30.02 in 5.0 mi Calm Calm - N/A   Clear
8:55 AM 73.9 °F - 69.4 °F 86% 30.02 in 5.0 mi Calm Calm - N/A   Clear
9:35 AM 76.1 °F - 70.3 °F 82% 30.03 in 5.0 mi Calm Calm - N/A   Haze
9:55 AM 78.4 °F - 71.2 °F 78% 30.04 in 7.0 mi WSW 4.6 mph - N/A   Clear
10:35 AM 78.3 °F - 72.0 °F 81% 30.04 in 7.0 mi WSW 3.5 mph - N/A   Clear
10:55 AM 78.4 °F - 72.5 °F 82% 30.04 in 7.0 mi Calm Calm - N/A   Clear
11:35 AM 82.2 °F 88.0 °F 73.6 °F 75% 30.04 in 7.0 mi WSW 3.5 mph - N/A   Clear
11:55 AM 81.9 °F 87.0 °F 72.7 °F 74% 30.04 in 7.0 mi WNW 3.5 mph - N/A   Clear
12:35 PM 81.5 °F 86.5 °F 72.9 °F 75% 30.03 in 7.0 mi West 4.6 mph - N/A   Clear
12:55 PM 81.9 °F 87.5 °F 73.6 °F 76% 30.03 in 7.0 mi West 3.5 mph - N/A   Clear
1:35 PM 82.0 °F 87.9 °F 73.8 °F 76% 30.02 in 7.0 mi SW 3.5 mph - N/A   Clear
1:55 PM 83.1 °F 89.2 °F 73.4 °F 72% 30.01 in 7.0 mi West 5.8 mph - N/A   Clear
2:35 PM 84.7 °F 93.2 °F 75.2 °F 73% 29.99 in 7.0 mi SSW 5.8 mph - N/A   Clear
2:55 PM 85.1 °F 93.3 °F 74.8 °F 71% 29.98 in 7.0 mi South 5.8 mph - N/A   Clear
3:35 PM 84.2 °F 91.6 °F 74.3 °F 72% 29.97 in 7.0 mi SW 3.5 mph - N/A   Scattered Clouds
3:55 PM 85.3 °F 94.6 °F 75.6 °F 73% 29.97 in 7.0 mi South 3.5 mph - N/A   Clear
4:35 PM 86.9 °F 95.9 °F 74.7 °F 67% 29.95 in 7.0 mi WSW 5.8 mph - N/A   Scattered Clouds
4:55 PM 87.1 °F 96.3 °F 75.0 °F 67% 29.95 in 7.0 mi WSW 8.1 mph - N/A   Scattered Clouds
5:35 PM 86.9 °F 96.4 °F 75.0 °F 68% 29.94 in 7.0 mi WSW 3.5 mph - N/A   Scattered Clouds
5:55 PM 86.4 °F 95.1 °F 74.5 °F 68% 29.94 in 10.0 mi SW 3.5 mph - N/A   Scattered Clouds
6:15 PM 86.2 °F 94.6 °F 74.3 °F 68% 29.95 in 10.0 mi SW 3.5 mph - N/A   Scattered Clouds
6:35 PM 85.3 °F 93.7 °F 74.8 °F 71% 29.95 in 7.0 mi WSW 4.6 mph - N/A   Scattered Clouds
6:55 PM 84.2 °F 91.6 °F 74.3 °F 72% 29.94 in 7.0 mi WSW 4.6 mph - N/A   Scattered Clouds
7:15 PM 83.1 °F 89.8 °F 74.1 °F 74% 29.95 in 7.0 mi WSW 3.5 mph - N/A   Scattered Clouds
7:35 PM 81.7 °F 87.6 °F 74.3 °F 78% 29.95 in 7.0 mi SW 3.5 mph - N/A   Scattered Clouds
7:55 PM 80.4 °F 85.3 °F 73.9 °F 81% 29.94 in 7.0 mi Calm Calm - N/A   Clear
8:15 PM 80.1 °F 84.5 °F 73.6 °F 81% 29.94 in 10.0 mi Calm Calm - N/A   Clear
8:35 PM 79.3 °F - 73.4 °F 82% 29.95 in 7.0 mi Calm Calm - N/A   Clear
8:55 PM 79.2 °F - 73.2 °F 82% 29.95 in 7.0 mi Calm Calm - N/A   Clear
9:35 PM 77.4 °F - 72.5 °F 85% 29.94 in 7.0 mi Calm Calm - N/A   Clear
9:55 PM 77.9 °F - 72.5 °F 83% 29.95 in 7.0 mi Calm Calm - N/A   Clear
10:35 PM 77.7 °F - 71.6 °F 81% 29.96 in 7.0 mi Calm Calm - N/A   Clear
10:55 PM 77.4 °F - 71.2 °F 81% 29.96 in 7.0 mi Calm Calm - N/A   Clear
11:35 PM 77.0 °F - 70.7 °F 81% 29.95 in 7.0 mi Calm Calm - N/A   Clear
11:55 PM 76.1 °F - 70.0 °F 81% 29.94 in 7.0 mi WSW 3.5 mph - N/A   Clear